This is the latest recevied weather packets stored in our database for station/object W9QL-13. If no packets are shown the sender has not sent any weather packets the latest 1 day(s).
| Time | Temp. | Humidity | Pressure | Rain* | Wind** | Luminosity | Snow |
|---|---|---|---|---|---|---|---|
| 1778012882 | 13.89° C | 33% | 1007.6 hPa | 0 mm | 0.89 m/s, 335° | - | - |
| 1778012552 | 13.89° C | 32% | 1007.6 hPa | 0 mm | 2.24 m/s, 324° | - | - |
| 1778012222 | 13.89° C | 32% | 1007.5 hPa | 0 mm | 2.24 m/s, 336° | - | - |
| 1778011892 | 13.89° C | 30% | 1007.6 hPa | 0 mm | 0.89 m/s, 331° | - | - |
| 1778011592 | 14.44° C | 30% | 1007.6 hPa | 0 mm | 2.24 m/s, 358° | - | - |
| 1778011261 | 14.44° C | 29% | 1007.6 hPa | 0 mm | 3.13 m/s, 355° | - | - |
| 1778010931 | 14.44° C | 30% | 1007.7 hPa | 0 mm | 2.68 m/s, 344° | - | - |
| 1778010631 | 14.44° C | 30% | 1007.7 hPa | 0 mm | 1.34 m/s, 355° | - | - |
| 1778010331 | 14.44° C | 32% | 1007.8 hPa | 0 mm | 2.68 m/s, 327° | - | - |
| 1778010001 | 14.44° C | 32% | 1007.6 hPa | 0 mm | 1.34 m/s, 330° | - | - |
| 1778009701 | 14.44° C | 31% | 1007.7 hPa | 0 mm | 1.34 m/s, 327° | - | - |
| 1778009401 | 14.44° C | 32% | 1007.7 hPa | 0 mm | 0.89 m/s, 327° | - | - |
| 1778009101 | 14.44° C | 33% | 1008 hPa | 0 mm | 0.89 m/s, 313° | - | - |
| 1778008801 | 14.44° C | 32% | 1008.1 hPa | 0 mm | 2.24 m/s, 335° | - | - |
| 1778008501 | 14.44° C | 34% | 1007.9 hPa | 0 mm | 0.89 m/s, 307° | - | - |
| 1778008171 | 14.44° C | 34% | 1008 hPa | 0 mm | 0.45 m/s, 348° | - | - |
| 1778007841 | 14.44° C | 34% | 1008 hPa | 0 mm | 0.45 m/s, 328° | - | - |
| 1778007541 | 14.44° C | 33% | 1008 hPa | 0 mm | 0.89 m/s, 11° | - | - |
| 1778007211 | 14.44° C | 32% | 1007.8 hPa | 0 mm | 2.24 m/s, 328° | - | - |
| 1778006911 | 14.44° C | 32% | 1007.8 hPa | 0 mm | 1.34 m/s, 347° | - | - |
| 1778006611 | 14.44° C | 33% | 1007.8 hPa | 0 mm | 2.24 m/s, 319° | - | - |
| 1778006311 | 14.44° C | 32% | 1007.8 hPa | 0 mm | 2.24 m/s, 295° | - | - |
| 1778006011 | 14.44° C | 33% | 1007.8 hPa | 0 mm | 2.68 m/s, 340° | - | - |
| 1778005711 | 14.44° C | 33% | 1007.8 hPa | 0 mm | 1.34 m/s, 5° | - | - |
| 1778005411 | 15° C | 33% | 1007.8 hPa | 0 mm | 2.24 m/s, 343° | - | - |
* Rain latest hour (hover to see other rain measurements)
** Current wind speed in m/s (hover to see current wind gust speed)